Hourly Data Report for November 13, 2017

All times are specified in Local Standard Time (LST). Add 1 hour to adjust for Daylight Saving Time where and when it is observed.

SUDBURY A
ONTARIO

46°37'32.000" N
80°47'52.000" W
348.40 m
6068153
71730
YSB

Download Data

Hourly Data (November 2017)
Hourly Data Report for November 13, 2017
Temp Definition
°C
Dew Point Temp Definition
°C
Rel Hum Definition
%
Wind Dir Definition
10's deg

Wind Spd Definition
km/h
Visibility Definition
km
Stn Press Definition
kPa
Hmdx Definition


Wind Chill Definition


Weather Definition


TIME
00:00 Legend Double Dagger -0.9 -1.3 98 11 6 4.0 98.41   -3 Fog
01:00 Legend Double Dagger -1.0 -1.4 97 5 3 4.8 98.41   -2 Fog
02:00 Legend Double Dagger -1.1 -1.5 97 4 5 9.7 98.41   -3 Fog
03:00 Legend Double Dagger -1.1 -1.4 97 2 5 9.7 98.43   -3 Fog
04:00 Legend Double Dagger -1.0 -1.4 97 14 4 9.7 98.40   -2 Fog
05:00 Legend Double Dagger -1.0 -1.4 97 36 3 4.8 98.43   -2 Fog
06:00 Legend Double Dagger -1.2 -1.6 97 12 3 9.7 98.44   -2 Fog
07:00 Legend Double Dagger -1.1 -1.6 97 3 8 9.7 98.44   -4 Fog
08:00 Legend Double Dagger -1.1 -1.6 97 23 7 2.4 98.51   -4 Fog
09:00 Legend Double Dagger -1.0 -1.4 97 30 7 4.0 98.54   -4 Fog
10:00 Legend Double Dagger -0.6 -1.0 97 33 5 12.9 98.55   -2 Cloudy
11:00 Legend Double Dagger -0.1 -0.8 95 32 5 24.1 98.60   -2 LegendNANA
12:00 Legend Double Dagger 0.3 -0.9 92 35 6 24.1 98.59     LegendNANA
13:00 Legend Double Dagger 0.4 -0.9 91 29 4 24.1 98.55     Cloudy
14:00 Legend Double Dagger 0.6 -0.9 90 32 6 24.1 98.56     LegendNANA
15:00 Legend Double Dagger 0.4 -1.0 90 35 3 24.1 98.56     LegendNANA
16:00 Legend Double Dagger 0.2 -1.0 92 28 4 24.1 98.59     Cloudy
17:00 Legend Double Dagger 0.0 -0.9 94 27 7 24.1 98.60   -2 LegendNANA
18:00 Legend Double Dagger -0.4 -1.0 96 29 5 24.1 98.59   -2 LegendNANA
19:00 Legend Double Dagger -0.6 -1.1 97 6 7 24.1 98.61   -3 Cloudy
20:00 Legend Double Dagger -0.9 -1.3 97 2 4 8.1 98.60   -2 Fog
21:00 Legend Double Dagger -0.8 -1.2 97 35 3 16.1 98.59   -2 LegendNANA
22:00 Legend Double Dagger -0.7 -1.0 98 8 5 3.2 98.58   -2 Fog
23:00 Legend Double Dagger -0.7 -1.0 98 14 4 4.0 98.58   -2 Fog

Notes on Data Quality.

Legend

  • E = Estimated
  • M = Missing
  • NA = Not Available
  • ‡ = Partner data that is not subject to review by the National Climate Archives
Date modified: